Location: Julian California
(33.0790°N, 116.6010°W)
Time: 01:20:49
(UTC-07:00)

MetOp-B - Pass Details

Date: 12 July 2018
Orbit: 819 x 822 km, 98.7° (Epoch: 19 September)

Event Time Altitude Azimuth Distance (km) Brightness Sun altitude
Exits shadow 21:30:26 27° 144° (SE) 1,516 4.9 -17.0°
Maximum altitude 21:33:15 60° 74° (ENE) 932 4.2 -17.4°
Drops below altitude 10° 21:38:31 10° 355° (N) 2,420 7.2 -18.3°
Sets 21:40:54 0° 352° (N) 3,356 8.1 -18.6°
